FENGYUN 1C DEB

Satellite information

Favourite Embed

Satellite Type and Status

DEBRISIN ORBIT

Key statistics

Satellite FENGYUN 1C DEB at a glance.

Uptime

9555

Days in orbit

Revolutions

≈ 14.1

Per day

Orbit

SSO

Sun Synchronous Orbit

Inclination

98.7

Latest

Satellite identification and parameters

Extended collection of information and parameters for FENGYUN 1C DEB.

Object identification

Identified? True

Debris? True

Object name: FENGYUN 1C DEB

International designator: 1999-025AXQ

Object number (NORAD): 30878

Object ID (CCSDS): 30878

Country: PEOPLES REPUBLIC OF CHINA (PRC)

Current information (Y/N): Y

RCS size: SMALL

Orbital parameters

Period: 102.02 minutes

Inclination: 98.7167 deg

SMA: 7232.401 km

Apoapsis: 884.494 km

Periapsis: 824.039 km

RAAN: 193.7496 deg

Eccentricy: 0.0041795

Argument of periapsis: 27.3532 deg

Mean anomaly: 95.6679 deg

Mean motion: 14.11493794 rev/day

Mean motion (dot): 0.00000702 rev/day2

B* drag term: 0.00040743 1/REarth

Two-line elements (TLE)

Creation date: July 6, 2025, 10:46 p.m.

Reference frame: TEME

Reference center: EARTH

Epoch: July 6, 2025, 8 p.m. UTC

TLE line 0: 0 FENGYUN 1C DEB

TLE line 1: 1 30878U 99025AXQ 25187.83335971 .00000702 00000-0 40743-3 0 9993

TLE line 2: 2 30878 98.7167 193.7496 0041795 27.3532 95.6679 14.11493794941440

Live tracking on map

Real-time ground track for satellite FENGYUN 1C DEB.

In-orbit conjunctions

A list of the most updated potential collisions computed for object FENGYUN 1C DEB.

Target Orbit TCA Probability of collision Miss distance Type
COSMOS 1833 LEO 2025-04-30 18:27:37 0.0007383428 215.0 (m) PAYLOAD
NOAA 16 DEB SSO 2024-11-09 01:26:32 0.0001164864 299.0 (m) DEBRIS
DMSP 5D-2 F8 DEB SSO 2024-08-31 21:01:52 0.0002228225 575.0 (m) DEBRIS

Associated space launch

Chinese polar orbiting meteorological satellite

FENGYUN 1C DEB was lifted into orbit during the mission ‘Long March 4B | Feng Yun 1C’, on board a Long March 4B space rocket.

The launch took place on May 10, 1999, 1:33 a.m. from Launch Complex 7.

For more information about the launch, click the button.

Launch to space Long March 4B | Feng Yun 1C
Long March 4B | Feng Yun 1C

Agency: N/A

Status: Launch Successful

Launch date: May 10, 1999, 1:33 a.m. UTC

Rocket: Long March 4B

Launch pad: Launch Complex 7

Location: Taiyuan Satellite Launch Center, People's Republic of China

...

Latest news about this satellite

There are no fresh news available about this satellite. Check back as we update our databases every day.


Newsletter sign-up

Weekly statistics, charts and insights to help you stay on top of the space industry.